,,,PA_Meas_PMT16A,,PR_Meas_QMR101_102,,RH_Meas_QMH101,,SR_Meas_QMS101,,TA_Meas_QMH101,,GenWind,,GenWind,
date,time,status,PA,status,PR,status,RH,status,SR,status,TA,status,DirAvg,status,SpdAvg,
2012-07-01, 07:05:04,VALID,1002.61,VALID,0,VALID,78.4707,VALID,252.678,VALID,28.1834,VALID,239,VALID,1.05273,
2012-07-01, 07:06:04,VALID,1002.62,VALID,0,VALID,78.1808,VALID,159.92,VALID,28.2397,VALID,258,VALID,0.455469,
2012-07-01, 07:16:04,VALID,1002.65,VALID,0,VALID,78.0434,VALID,133.104,VALID,28.2419,VALID,261,VALID,1.29961,
2012-07-01, 07:17:04,VALID,1002.65,VALID,0,VALID,77.395,VALID,141.581,VALID,28.3003,VALID,268,VALID,1.17344,
2012-07-01, 07:18:04,VALID,1002.62,VALID,0,VALID,77.5552,VALID,259.198,VALID,28.3783,VALID,311,VALID,1.21641,
2012-07-01, 07:19:04,VALID,1002.64,VALID,0,VALID,78.0816,VALID,258.22,VALID,28.4563,VALID,282,VALID,0.914453,
2012-07-01, 07:20:04,VALID,1002.65,VALID,0,VALID,76.9144,VALID,128.132,VALID,28.6122,VALID,234,VALID,0.803125,
2012-07-01, 07:21:04,VALID,1002.65,VALID,0,VALID,76.2964,VALID,248.276,VALID,28.7314,VALID,251,VALID,1.50625,
2012-07-01, 07:22:04,VALID,1002.66,VALID,0,VALID,75.6861,VALID,128.051,VALID,28.7704,VALID,260,VALID,2.06445,
2012-07-01, 07:23:04,VALID,1002.65,VALID,0,VALID,76.9296,VALID,275.5,VALID,28.7487,VALID,264,VALID,0.641406,
2012-07-01, 07:24:04,VALID,1002.68,VALID,0,VALID,75.8768,VALID,213.798,VALID,28.8093,VALID,133,VALID,0.723828,
2012-07-01, 07:25:04,VALID,1002.65,VALID,0,VALID,75.2513,VALID,312.75,VALID,28.8678,VALID,283,VALID,1.64219,
2012-07-01, 07:26:04,VALID,1002.69,VALID,0,VALID,75.8463,VALID,305.495,VALID,28.9631,VALID,260,VALID,0.872656,
2012-07-01, 07:27:04,VALID,1002.7,VALID,0,VALID,75.4267,VALID,307.126,VALID,29.0411,VALID,332,VALID,0.455859,
2012-07-01, 07:28:04,VALID,1002.7,VALID,0,VALID,75.8921,VALID,239.718,VALID,29.0996,VALID,261,VALID,1.43633,
2012-07-01, 07:29:04,VALID,1002.74,VALID,0,VALID,75.5183,VALID,279.82,VALID,29.1386,VALID,278,VALID,0.868359,
2012-07-01, 07:34:04,VALID,1002.86,VALID,0,VALID,76.6016,VALID,285.852,VALID,28.7509,VALID,309,VALID,0.719141,
2012-07-01, 07:35:04,VALID,1002.84,VALID,0,VALID,76.4566,VALID,256.02,VALID,28.7292,VALID,212,VALID,0.642578,
2012-07-01, 07:36:04,VALID,1002.88,VALID,0,VALID,76.243,VALID,230.426,VALID,28.7898,VALID,272,VALID,1.30859,
2012-07-01, 07:37:04,VALID,1002.88,VALID,0,VALID,75.4878,VALID,323.753,VALID,28.7898,VALID,238,VALID,1.93359,
2012-07-01, 07:38:04,VALID,1002.89,VALID,0,VALID,76.0447,VALID,131.637,VALID,28.7877,VALID,223,VALID,2.10195,
2012-07-01, 07:42:04,VALID,1002.96,VALID,0,VALID,77.2729,VALID,114.031,VALID,28.6317,VALID,204,VALID,0.637109,
2012-07-01, 07:43:04,VALID,1002.96,VALID,0,VALID,77.0212,VALID,116.558,VALID,28.6534,VALID,245,VALID,1.06641,
2012-07-01, 07:44:04,VALID,1002.97,VALID,0,VALID,77.0975,VALID,128.051,VALID,28.5754,VALID,260,VALID,1.42695,
2012-07-01, 07:45:04,VALID,1002.93,VALID,0,VALID,75.1063,VALID,124.546,VALID,28.5169,VALID,221,VALID,2.22422,
2012-07-01, 07:46:04,VALID,1002.92,VALID,0,VALID,76.0828,VALID,211.516,VALID,28.4563,VALID,240,VALID,1.32891,
2012-07-01, 07:47:04,VALID,1002.95,VALID,0,VALID,76.4414,VALID,155.193,VALID,28.4779,VALID,247,VALID,1.27383,
2012-07-01, 07:48:04,VALID,1003,VALID,0,VALID,77.0364,VALID,147.776,VALID,28.5169,VALID,189,VALID,0.803516,
2012-07-01, 07:49:04,VALID,1002.95,VALID,0,VALID,75.4344,VALID,399.149,VALID,28.5537,VALID,203,VALID,0.685156,
2012-07-01, 07:50:04,VALID,1002.97,VALID,0,VALID,75.6251,VALID,372.251,VALID,28.6339,VALID,233,VALID,1.5957,
2012-07-01, 07:51:04,VALID,1002.98,VALID,0,VALID,75.2131,VALID,147.694,VALID,28.7509,VALID,225,VALID,1.33438,
2012-07-01, 07:52:04,VALID,1002.97,VALID,0,VALID,74.0841,VALID,224.802,VALID,28.8483,VALID,272,VALID,1.01875,
2012-07-01, 07:53:04,VALID,1003,VALID,0,VALID,74.0383,VALID,140.766,VALID,28.9458,VALID,215,VALID,1.25781,
2012-07-01, 07:54:04,VALID,1002.99,VALID,0,VALID,73.9315,VALID,415.695,VALID,29.0043,VALID,279,VALID,1.4332,
2012-07-01, 07:55:04,VALID,1003,VALID,0,VALID,74.1909,VALID,446.343,VALID,29.1625,VALID,229,VALID,1.65391,
2012-07-01, 07:56:04,VALID,1003.03,VALID,0,VALID,72.7795,VALID,422.379,VALID,29.1798,VALID,234,VALID,1.87773,
2012-07-01, 07:57:04,VALID,1003.04,VALID,0,VALID,74.6638,VALID,182.009,VALID,29.1191,VALID,227,VALID,0.477734,
2012-07-01, 07:58:04,VALID,1003.05,VALID,0,VALID,74.3434,VALID,224.883,VALID,29.1213,VALID,257,VALID,1.03047,
2012-07-01, 07:59:04,VALID,1003.05,VALID,0,VALID,74.5647,VALID,403.388,VALID,29.1798,VALID,239,VALID,1.26328,
2012-07-01, 08:00:04,VALID,1003.09,VALID,0,VALID,74.1527,VALID,176.141,VALID,29.2578,VALID,263,VALID,1.98047,
2012-07-01, 08:01:04,VALID,1003.12,VALID,0,VALID,73.2601,VALID,378.446,VALID,29.2968,VALID,9,VALID,0.747656,
2012-07-01, 08:02:04,VALID,1003.17,VALID,0,VALID,73.8399,VALID,191.872,VALID,29.3358,VALID,249,VALID,1.77266,
2012-07-01, 08:03:04,VALID,1003.12,VALID,0,VALID,73.9925,VALID,399.068,VALID,29.3943,VALID,277,VALID,1.38945,
2012-07-01, 08:04:04,VALID,1003.1,VALID,0,VALID,74.7554,VALID,413.821,VALID,29.4355,VALID,290,VALID,1.53789,
2012-07-01, 08:05:04,VALID,1003.11,VALID,0,VALID,73.8628,VALID,433.138,VALID,29.4528,VALID,244,VALID,1.55156,
2012-07-01, 08:06:04,VALID,1003.14,VALID,0,VALID,73.7102,VALID,143.13,VALID,29.4505,VALID,249,VALID,1.5957,
2012-07-01, 08:07:04,VALID,1003.08,VALID,0,VALID,74.7859,VALID,412.435,VALID,29.4505,VALID,292,VALID,0.988672,
2012-07-01, 08:08:04,VALID,1003.09,VALID,0,VALID,74.0688,VALID,156.579,VALID,29.4333,VALID,232,VALID,2.17188,
2012-07-01, 08:09:04,VALID,1003.08,VALID,0,VALID,74.3587,VALID,323.427,VALID,29.3358,VALID,228,VALID,1.58828,
2012-07-01, 08:10:04,VALID,1003.11,VALID,0,VALID,74.6562,VALID,231.893,VALID,29.3358,VALID,251,VALID,1.57344,
2012-07-01, 08:11:04,VALID,1003.12,VALID,0,VALID,75.1597,VALID,199.208,VALID,29.3943,VALID,291,VALID,1.20508,
2012-07-01, 08:12:04,VALID,1003.09,VALID,0,VALID,73.5348,VALID,166.523,VALID,29.4115,VALID,295,VALID,1.19687,
2012-07-01, 08:13:04,VALID,1003.12,VALID,0,VALID,73.1457,VALID,126.746,VALID,29.3553,VALID,290,VALID,1.19414,
2012-07-01, 08:14:04,VALID,1003.17,VALID,0,VALID,74.0993,VALID,208.337,VALID,29.2968,VALID,38,VALID,0.457031,
2012-07-01, 08:15:04,VALID,1003.15,VALID,0,VALID,72.9168,VALID,197.659,VALID,29.314,VALID,272,VALID,1.38477,
2012-07-01, 08:16:04,VALID,1003.14,VALID,0,VALID,74.2061,VALID,343.968,VALID,29.2751,VALID,281,VALID,1.20234,
2012-07-01, 08:17:04,VALID,1003.18,VALID,0,VALID,74.4426,VALID,555.483,VALID,29.3748,VALID,235,VALID,0.586719,
2012-07-01, 08:18:04,VALID,1003.13,VALID,0,VALID,73.8857,VALID,200.756,VALID,29.5675,VALID,195,VALID,0.479688,
2012-07-01, 08:19:04,VALID,1003.14,VALID,0,VALID,72.5964,VALID,180.216,VALID,29.7258,VALID,241,VALID,1.25273,
2012-07-01, 08:20:04,VALID,1003.14,VALID,0,VALID,72.0319,VALID,115.335,VALID,29.7235,VALID,246,VALID,0.758203,
2012-07-01, 08:21:04,VALID,1003.15,VALID,0,VALID,71.1088,VALID,125.442,VALID,29.6673,VALID,196,VALID,1.37188,
2012-07-01, 08:22:04,VALID,1003.15,VALID,0,VALID,72.8024,VALID,517.663,VALID,29.4723,VALID,135,VALID,1.08164,
2012-07-01, 08:23:04,VALID,1003.17,VALID,0,VALID,71.9632,VALID,358.884,VALID,29.4138,VALID,222,VALID,2.16914,
2012-07-01, 08:24:04,VALID,1003.2,VALID,0,VALID,72.1463,VALID,522.635,VALID,29.2773,VALID,248,VALID,2.60547,
2012-07-01, 08:25:04,VALID,1003.23,VALID,0,VALID,74.0841,VALID,530.052,VALID,29.2578,VALID,269,VALID,1.52773,
2012-07-01, 08:26:04,VALID,1003.22,VALID,0,VALID,73.4814,VALID,315.358,VALID,29.3943,VALID,244,VALID,2.13906,
2012-07-01, 08:27:04,VALID,1003.21,VALID,0,VALID,73.4203,VALID,197.17,VALID,29.4918,VALID,286,VALID,1.15,
2012-07-01, 08:28:04,VALID,1003.2,VALID,0,VALID,72.7948,VALID,666.172,VALID,29.5308,VALID,250,VALID,1.59063,
2012-07-01, 08:29:04,VALID,1003.22,VALID,0,VALID,72.2913,VALID,189.427,VALID,29.5675,VALID,265,VALID,1.43086,
2012-07-01, 08:30:04,VALID,1003.24,VALID,0,VALID,71.4826,VALID,177.282,VALID,29.6088,VALID,264,VALID,0.919922,
2012-07-01, 08:31:04,VALID,1003.26,VALID,0,VALID,72.3676,VALID,194.643,VALID,29.5503,VALID,237,VALID,1.96836,
2012-07-01, 08:32:04,VALID,1003.28,VALID,0,VALID,72.6269,VALID,158.209,VALID,29.431,VALID,294,VALID,0.875,
2012-07-01, 08:33:04,VALID,1003.26,VALID,0,VALID,72.2074,VALID,152.259,VALID,29.4138,VALID,313,VALID,1.43945,
2012-07-01, 08:34:04,VALID,1003.29,VALID,0,VALID,73.2449,VALID,205.484,VALID,29.3163,VALID,229,VALID,1.36641,
2012-07-01, 08:35:04,VALID,1003.28,VALID,0,VALID,73.7789,VALID,624.684,VALID,29.2188,VALID,251,VALID,1.61719,
2012-07-01, 08:36:04,VALID,1003.28,VALID,0,VALID,73.6492,VALID,431.264,VALID,29.2773,VALID,229,VALID,1.01719,
2012-07-01, 08:37:04,VALID,1003.28,VALID,0,VALID,73.1152,VALID,104.25,VALID,29.2578,VALID,247,VALID,1.54883,
2012-07-01, 08:38:04,VALID,1003.25,VALID,0,VALID,72.688,VALID,106.125,VALID,29.1213,VALID,210,VALID,2.36328,
2012-07-01, 08:39:04,VALID,1003.27,VALID,0,VALID,73.3822,VALID,144.515,VALID,28.9241,VALID,235,VALID,1.84453,
2012-07-01, 08:40:04,VALID,1003.27,VALID,0,VALID,74.2977,VALID,603.981,VALID,28.87,VALID,252,VALID,1.28008,
2012-07-01, 08:41:04,VALID,1003.25,VALID,0,VALID,73.3669,VALID,612.539,VALID,28.8678,VALID,224,VALID,2.8125,
2012-07-01, 08:42:04,VALID,1003.27,VALID,0,VALID,74.3816,VALID,265.964,VALID,29.0455,VALID,241,VALID,1.49922,
2012-07-01, 08:43:04,VALID,1003.26,VALID,0,VALID,72.5583,VALID,167.99,VALID,29.2188,VALID,222,VALID,0.76875,
2012-07-01, 08:44:04,VALID,1003.25,VALID,0,VALID,72.7871,VALID,251.129,VALID,29.2383,VALID,238,VALID,1.67383,
2012-07-01, 08:45:04,VALID,1003.25,VALID,0,VALID,72.5201,VALID,170.354,VALID,29.2383,VALID,260,VALID,2.41914,
2012-07-01, 08:46:04,VALID,1003.25,VALID,0,VALID,72.5201,VALID,636.177,VALID,29.1993,VALID,213,VALID,2.3625,
2012-07-01, 08:47:04,VALID,1003.27,VALID,0,VALID,74.0764,VALID,600.476,VALID,29.2383,VALID,255,VALID,1.31836,
2012-07-01, 08:48:04,VALID,1003.32,VALID,0,VALID,72.7337,VALID,631.45,VALID,29.3163,VALID,240,VALID,1.23789,
2012-07-01, 08:49:04,VALID,1003.3,VALID,0,VALID,73.0084,VALID,684.104,VALID,29.4528,VALID,304,VALID,0.951953,
2012-07-01, 08:50:04,VALID,1003.27,VALID,0,VALID,71.1469,VALID,602.677,VALID,29.6478,VALID,211,VALID,3.23086,
2012-07-01, 08:51:04,VALID,1003.29,VALID,0,VALID,72.8634,VALID,430.286,VALID,29.6868,VALID,244,VALID,1.18867,
2012-07-01, 08:52:04,VALID,1003.31,VALID,0,VALID,71.208,VALID,164.811,VALID,29.587,VALID,221,VALID,2.54258,
2012-07-01, 08:53:04,VALID,1003.32,VALID,0,VALID,72.6041,VALID,166.686,VALID,29.4528,VALID,229,VALID,2.09102,
2012-07-01, 08:54:04,VALID,1003.32,VALID,0,VALID,72.9168,VALID,602.351,VALID,29.3943,VALID,292,VALID,1.41367,
2012-07-01, 08:55:04,VALID,1003.35,VALID,0,VALID,73.0313,VALID,753.713,VALID,29.4723,VALID,231,VALID,1.66797,
2012-07-01, 08:56:04,VALID,1003.33,VALID,0,VALID,72.9474,VALID,711.654,VALID,29.5893,VALID,244,VALID,1.96445,
2012-07-01, 08:57:04,VALID,1003.33,VALID,0,VALID,71.8641,VALID,234.338,VALID,29.6868,VALID,247,VALID,2.225,
2012-07-01, 08:58:04,VALID,1003.32,VALID,0,VALID,71.8259,VALID,174.103,VALID,29.6283,VALID,281,VALID,1.24609,
2012-07-01, 08:59:04,VALID,1003.3,VALID,0,VALID,72.4591,VALID,149.243,VALID,29.5503,VALID,291,VALID,0.877734,
2012-07-01, 09:00:04,VALID,1003.34,VALID,0,VALID,72.5125,VALID,160.084,VALID,29.4723,VALID,249,VALID,2.20039,
2012-07-01, 09:01:04,VALID,1003.32,VALID,0,VALID,72.955,VALID,652.886,VALID,29.4723,VALID,253,VALID,1.81133,
2012-07-01, 09:02:04,VALID,1003.31,VALID,0,VALID,73.3898,VALID,727.712,VALID,29.4918,VALID,243,VALID,2.32617,
2012-07-01, 09:03:04,VALID,1003.34,VALID,0,VALID,73.3364,VALID,662.994,VALID,29.5698,VALID,234,VALID,2.11719,
2012-07-01, 09:04:04,VALID,1003.31,VALID,0,VALID,73.0465,VALID,271.914,VALID,29.7475,VALID,244,VALID,1.30273,
2012-07-01, 09:05:04,VALID,1003.27,VALID,0,VALID,71.6733,VALID,173.859,VALID,29.806,VALID,224,VALID,1.74805,
2012-07-01, 09:06:04,VALID,1003.24,VALID,0,VALID,71.3682,VALID,214.287,VALID,29.728,VALID,254,VALID,2.31953,
2012-07-01, 09:07:04,VALID,1003.31,VALID,0,VALID,71.9403,VALID,288.786,VALID,29.6283,VALID,229,VALID,1.40547,
2012-07-01, 09:08:04,VALID,1003.26,VALID,0,VALID,72.7643,VALID,228.469,VALID,29.6088,VALID,256,VALID,1.70859,
2012-07-01, 09:09:04,VALID,1003.25,VALID,0,VALID,72.1158,VALID,143.619,VALID,29.533,VALID,237,VALID,2.55547,
2012-07-01, 09:10:04,VALID,1003.29,VALID,0,VALID,73.4966,VALID,296.366,VALID,29.416,VALID,240,VALID,1.26914,
2012-07-01, 09:11:04,VALID,1003.27,VALID,0,VALID,73.2601,VALID,108.977,VALID,29.2751,VALID,246,VALID,2.44883,
2012-07-01, 09:12:04,VALID,1003.3,VALID,0,VALID,73.5729,VALID,159.594,VALID,29.1603,VALID,260,VALID,1.77109,
2012-07-01, 09:13:04,VALID,1003.28,VALID,0,VALID,73.7408,VALID,424.906,VALID,29.182,VALID,218,VALID,1.95977,
2012-07-01, 09:14:04,VALID,1003.27,VALID,0,VALID,74.9003,VALID,654.109,VALID,29.2015,VALID,273,VALID,0.782812,
2012-07-01, 09:15:04,VALID,1003.3,VALID,0,VALID,75.648,VALID,643.513,VALID,29.338,VALID,204,VALID,1.02656,
2012-07-01, 09:16:04,VALID,1003.27,VALID,0,VALID,73.5272,VALID,665.683,VALID,29.572,VALID,257,VALID,1.49883,
2012-07-01, 09:17:04,VALID,1003.24,VALID,0,VALID,69.6212,VALID,362.552,VALID,29.7648,VALID,278,VALID,1.87734,
2012-07-01, 09:18:04,VALID,1003.25,VALID,0,VALID,71.3987,VALID,661.363,VALID,29.7648,VALID,251,VALID,1.3543,
2012-07-01, 09:19:04,VALID,1003.2,VALID,0,VALID,71.0554,VALID,655.984,VALID,29.8623,VALID,191,VALID,1.15078,
2012-07-01, 09:20:04,VALID,1003.22,VALID,0,VALID,70.2696,VALID,657.043,VALID,29.9575,VALID,215,VALID,2.72617,
2012-07-01, 09:21:04,VALID,1003.25,VALID,0,VALID,70.8418,VALID,672.204,VALID,30.0573,VALID,271,VALID,1.31172,
2012-07-01, 09:22:04,VALID,1003.23,VALID,0,VALID,71.2461,VALID,677.747,VALID,30.1376,VALID,325,VALID,0.790234,
2012-07-01, 09:23:04,VALID,1003.24,VALID,0,VALID,70.5214,VALID,674.323,VALID,30.2546,VALID,250,VALID,2.03633,
2012-07-01, 09:24:04,VALID,1003.21,VALID,0,VALID,69.8729,VALID,666.254,VALID,30.3499,VALID,227,VALID,1.43828,
2012-07-01, 09:25:04,VALID,1003.25,VALID,0,VALID,69.8119,VALID,650.686,VALID,30.4107,VALID,254,VALID,1.19102,
2012-07-01, 09:26:04,VALID,1003.22,VALID,0,VALID,71.2614,VALID,650.604,VALID,30.5254,VALID,338,VALID,0.933203,
2012-07-01, 09:27:04,VALID,1003.21,VALID,0,VALID,70.2696,VALID,679.784,VALID,30.7205,VALID,229,VALID,1.48086,
2012-07-01, 09:28:04,VALID,1003.21,VALID,0,VALID,67.7292,VALID,224.883,VALID,30.8789,VALID,258,VALID,1.73516,
2012-07-01, 09:29:04,VALID,1003.2,VALID,0,VALID,67.0731,VALID,575.779,VALID,30.7205,VALID,225,VALID,2.55625,
2012-07-01, 09:30:04,VALID,1003.2,VALID,0,VALID,69.0948,VALID,653.783,VALID,30.6011,VALID,266,VALID,1.77383,
2012-07-01, 09:31:04,VALID,1003.22,VALID,0,VALID,68.4234,VALID,647.181,VALID,30.5449,VALID,201,VALID,2.17539,
2012-07-01, 09:32:04,VALID,1003.22,VALID,0,VALID,68.2327,VALID,649.789,VALID,30.4669,VALID,285,VALID,1.10977,
2012-07-01, 09:33:05,VALID,1003.25,VALID,0,VALID,68.0878,VALID,652.234,VALID,30.3694,VALID,225,VALID,2.61445,
2012-07-01, 09:34:05,VALID,1003.26,VALID,0,VALID,71.6428,VALID,655.413,VALID,30.3476,VALID,262,VALID,0.544141,
2012-07-01, 09:35:05,VALID,1003.24,VALID,0,VALID,67.4164,VALID,657.695,VALID,30.5449,VALID,237,VALID,1.5332,
2012-07-01, 09:36:05,VALID,1003.24,VALID,0,VALID,67.9276,VALID,659,VALID,30.5449,VALID,214,VALID,1.96211,
2012-07-01, 09:37:05,VALID,1003.25,VALID,0,VALID,70.3764,VALID,664.379,VALID,30.5449,VALID,232,VALID,0.745703,
2012-07-01, 09:38:05,VALID,1003.24,VALID,0,VALID,66.9663,VALID,675.22,VALID,30.701,VALID,224,VALID,1.89805,
2012-07-01, 09:39:05,VALID,1003.26,VALID,0,VALID,68.2403,VALID,693.233,VALID,30.662,VALID,229,VALID,1.13945,
2012-07-01, 09:40:05,VALID,1003.24,VALID,0,VALID,66.3713,VALID,697.635,VALID,30.7033,VALID,225,VALID,3.38438,
2012-07-01, 09:41:05,VALID,1003.21,VALID,0,VALID,68.9422,VALID,700.814,VALID,30.6229,VALID,284,VALID,1.64922,
2012-07-01, 09:42:05,VALID,1003.22,VALID,0,VALID,68.1793,VALID,705.867,VALID,30.74,VALID,267,VALID,1.32891,
2012-07-01, 09:43:05,VALID,1003.2,VALID,0,VALID,66.8519,VALID,730.157,VALID,30.701,VALID,239,VALID,2.30938,
2012-07-01, 09:44:05,VALID,1003.22,VALID,0,VALID,67.5003,VALID,739.123,VALID,30.6229,VALID,256,VALID,2.33008,
2012-07-01, 09:45:05,VALID,1003.2,VALID,0,VALID,66.1577,VALID,709.698,VALID,30.5839,VALID,236,VALID,1.86719,
2012-07-01, 09:46:05,VALID,1003.15,VALID,0,VALID,68.782,VALID,709.454,VALID,30.5472,VALID,266,VALID,1.18359,
2012-07-01, 09:47:05,VALID,1003.17,VALID,0,VALID,68.8583,VALID,702.851,VALID,30.6424,VALID,45,VALID,0.701953,
2012-07-01, 09:48:05,VALID,1003.16,VALID,0,VALID,66.295,VALID,714.589,VALID,30.857,VALID,246,VALID,1.24766,
2012-07-01, 09:49:05,VALID,1003.18,VALID,0,VALID,67.1036,VALID,734.314,VALID,30.8765,VALID,263,VALID,2.13594,
2012-07-01, 09:50:05,VALID,1003.22,VALID,0,VALID,67.775,VALID,757.625,VALID,30.9374,VALID,245,VALID,1.14492,
2012-07-01, 09:51:05,VALID,1003.18,VALID,0,VALID,66.7908,VALID,321.716,VALID,30.9936,VALID,240,VALID,1.60508,
2012-07-01, 09:52:05,VALID,1003.14,VALID,0,VALID,66.7451,VALID,819.898,VALID,30.8789,VALID,239,VALID,2.6332,
2012-07-01, 09:53:05,VALID,1003.19,VALID,0,VALID,67.5843,VALID,876.058,VALID,30.6838,VALID,219,VALID,2.08594,
2012-07-01, 09:54:05,VALID,1003.17,VALID,0,VALID,68.3166,VALID,260.665,VALID,30.6643,VALID,263,VALID,2.47773,
2012-07-01, 09:55:05,VALID,1003.19,VALID,0,VALID,67.2562,VALID,252.515,VALID,30.662,VALID,228,VALID,2.28906,
2012-07-01, 09:56:05,VALID,1003.24,VALID,0,VALID,68.1869,VALID,207.522,VALID,30.3889,VALID,237,VALID,2.71523,
2012-07-01, 09:57:05,VALID,1003.24,VALID,0,VALID,70.8265,VALID,315.358,VALID,30.2351,VALID,288,VALID,0.978516,
2012-07-01, 09:58:05,VALID,1003.24,VALID,0,VALID,69.8271,VALID,303.947,VALID,30.2546,VALID,263,VALID,1.48672,
2012-07-01, 09:59:05,VALID,1003.28,VALID,0,VALID,69.5372,VALID,243.141,VALID,30.3522,VALID,213,VALID,1.06836,
2012-07-01, 10:00:05,VALID,1003.26,VALID,0,VALID,69.1177,VALID,200.593,VALID,30.2133,VALID,257,VALID,1.72773,
2012-07-01, 10:01:05,VALID,1003.29,VALID,0,VALID,69.4762,VALID,221.297,VALID,30.1376,VALID,168,VALID,1.30859,
2012-07-01, 10:02:05,VALID,1003.29,VALID,0,VALID,69.8958,VALID,152.911,VALID,30.0011,VALID,211,VALID,1.76367,
2012-07-01, 10:03:05,VALID,1003.28,VALID,0,VALID,70.4222,VALID,829.516,VALID,29.845,VALID,226,VALID,2.38984,
2012-07-01, 10:04:05,VALID,1003.25,VALID,0,VALID,70.3688,VALID,846.715,VALID,29.8428,VALID,269,VALID,0.994141,
2012-07-01, 10:05:05,VALID,1003.24,VALID,0,VALID,70.7197,VALID,879.4,VALID,30.1766,VALID,265,VALID,1.52656,
2012-07-01, 10:06:05,VALID,1003.28,VALID,0,VALID,69.316,VALID,227.084,VALID,30.3694,VALID,259,VALID,1.34805,
2012-07-01, 10:07:05,VALID,1003.23,VALID,0,VALID,66.4399,VALID,908.009,VALID,30.4887,VALID,270,VALID,1.90195,
2012-07-01, 10:08:05,VALID,1003.27,VALID,0,VALID,68.7362,VALID,764.88,VALID,30.6253,VALID,278,VALID,1.00508,
2012-07-01, 10:09:05,VALID,1003.26,VALID,0,VALID,64.5403,VALID,165.708,VALID,30.818,VALID,261,VALID,2.26641,
2012-07-01, 10:10:05,VALID,1003.27,VALID,0,VALID,67.1265,VALID,183.151,VALID,30.6034,VALID,216,VALID,1.78633,
2012-07-01, 10:11:05,VALID,1003.26,VALID,0,VALID,66.829,VALID,893.338,VALID,30.3476,VALID,232,VALID,2.4543,
2012-07-01, 10:12:05,VALID,1003.26,VALID,0,VALID,68.5989,VALID,916.975,VALID,30.3327,VALID,257,VALID,1.44102,
2012-07-01, 10:13:05,VALID,1003.24,VALID,0,VALID,69.6212,VALID,353.993,VALID,30.3522,VALID,229,VALID,2.38438,
2012-07-01, 10:14:05,VALID,1003.17,VALID,0,VALID,69.7051,VALID,978.596,VALID,30.5036,VALID,222,VALID,0.945703,
2012-07-01, 10:15:05,VALID,1003.21,VALID,0,VALID,67.0045,VALID,1009.49,VALID,30.6229,VALID,222,VALID,2.31797,
2012-07-01, 10:16:05,VALID,1003.17,VALID,0,VALID,67.2181,VALID,289.846,VALID,30.6034,VALID,269,VALID,2.79297,
2012-07-01, 10:17:05,VALID,1003.22,VALID,0,VALID,67.1647,VALID,990.415,VALID,30.5862,VALID,245,VALID,2.62148,
2012-07-01, 10:18:05,VALID,1003.2,VALID,0,VALID,67.6758,VALID,489.135,VALID,30.4841,VALID,266,VALID,1.19297,
2012-07-01, 10:19:05,VALID,1003.16,VALID,0,VALID,67.7902,VALID,238.251,VALID,30.4669,VALID,217,VALID,1.50195,
2012-07-01, 10:20:05,VALID,1003.18,VALID,0,VALID,68.6294,VALID,898.88,VALID,30.3109,VALID,217,VALID,2.15234,
2012-07-01, 10:21:05,VALID,1003.22,VALID,0,VALID,69.2092,VALID,901.081,VALID,30.2913,VALID,267,VALID,1.54531,
2012-07-01, 10:22:05,VALID,1003.18,VALID,0,VALID,68.1259,VALID,680.355,VALID,30.4864,VALID,203,VALID,1.00117,
2012-07-01, 10:23:05,VALID,1003.13,VALID,0,VALID,67.7826,VALID,480.251,VALID,30.6229,VALID,236,VALID,1.77539,
2012-07-01, 10:24:05,VALID,1003.13,VALID,0,VALID,68.103,VALID,173.614,VALID,30.6815,VALID,227,VALID,1.36133,
2012-07-01, 10:25:05,VALID,1003.12,VALID,0,VALID,68.6828,VALID,602.595,VALID,30.5059,VALID,235,VALID,1.88164,
2012-07-01, 10:26:05,VALID,1003.14,VALID,0,VALID,68.5531,VALID,617.267,VALID,30.3499,VALID,280,VALID,1.5793,
2012-07-01, 10:27:05,VALID,1003.1,VALID,0,VALID,69.7127,VALID,930.832,VALID,30.3304,VALID,271,VALID,1.94805,
2012-07-01, 10:28:05,VALID,1003.1,VALID,0,VALID,67.8131,VALID,318.618,VALID,30.5059,VALID,243,VALID,1.68828,
2012-07-01, 10:29:05,VALID,1003.1,VALID,0,VALID,67.1036,VALID,856.496,VALID,30.662,VALID,243,VALID,1.51641,
2012-07-01, 10:30:05,VALID,1003.09,VALID,0,VALID,66.2263,VALID,510.816,VALID,30.8547,VALID,231,VALID,1.47891,
2012-07-01, 10:31:05,VALID,1003.09,VALID,0,VALID,65.5931,VALID,244.119,VALID,30.701,VALID,246,VALID,2.76641,
2012-07-01, 10:32:05,VALID,1003.13,VALID,0,VALID,67.2791,VALID,956.344,VALID,30.5254,VALID,183,VALID,2.18711,
2012-07-01, 10:33:05,VALID,1003.08,VALID,0,VALID,68.1259,VALID,366.709,VALID,30.6034,VALID,242,VALID,1.73789,
2012-07-01, 10:34:05,VALID,1003.03,VALID,0,VALID,67.4012,VALID,683.697,VALID,30.662,VALID,225,VALID,1.7582,
2012-07-01, 10:35:05,VALID,1003.06,VALID,0,VALID,69.6135,VALID,912.003,VALID,30.6596,VALID,284,VALID,1.08438,
2012-07-01, 10:36:05,VALID,1003,VALID,0,VALID,66.9892,VALID,170.435,VALID,30.8547,VALID,260,VALID,1.93242,
2012-07-01, 10:37:05,VALID,1003.03,VALID,0,VALID,67.7445,VALID,258.872,VALID,30.7985,VALID,211,VALID,1.34805,
2012-07-01, 10:38:05,VALID,1003.02,VALID,0,VALID,67.5843,VALID,166.115,VALID,30.6034,VALID,248,VALID,0.878516,
2012-07-01, 10:39:05,VALID,1003.05,VALID,0,VALID,68.9575,VALID,857.8,VALID,30.6034,VALID,264,VALID,1.26406,
2012-07-01, 10:40:05,VALID,1003.03,VALID,0,VALID,67.3172,VALID,914.856,VALID,30.6401,VALID,223,VALID,1.82578,
2012-07-01, 10:41:05,VALID,1003.06,VALID,0,VALID,68.843,VALID,465.09,VALID,30.6424,VALID,234,VALID,0.898438,
2012-07-01, 10:42:05,VALID,1003.05,VALID,0,VALID,67.9352,VALID,216.406,VALID,30.779,VALID,262,VALID,1.14297,
2012-07-01, 10:43:05,VALID,1002.99,VALID,0,VALID,65.9212,VALID,474.463,VALID,30.818,VALID,189,VALID,1.28047,
2012-07-01, 10:44:05,VALID,1002.99,VALID,0,VALID,67.4622,VALID,913.633,VALID,30.8765,VALID,270,VALID,0.74375,
2012-07-01, 10:45:05,VALID,1002.95,VALID,0,VALID,66.2721,VALID,926.186,VALID,31.0545,VALID,248,VALID,1.11875,
2012-07-01, 10:46:05,VALID,1002.94,VALID,0,VALID,66.4247,VALID,182.988,VALID,31.0911,VALID,278,VALID,1.04336,
2012-07-01, 10:47:05,VALID,1002.92,VALID,0,VALID,65.4711,VALID,903.119,VALID,31.2667,VALID,259,VALID,0.722266,
2012-07-01, 10:48:05,VALID,1002.86,VALID,0,VALID,65.9593,VALID,452.537,VALID,31.3252,VALID,259,VALID,2.21563,
2012-07-01, 10:49:05,VALID,1002.92,VALID,0,VALID,66.6917,VALID,887.225,VALID,31.3838,VALID,233,VALID,0.757422,
2012-07-01, 10:50:05,VALID,1002.89,VALID,0,VALID,66.8061,VALID,138.484,VALID,31.4033,VALID,207,VALID,1.6418,
2012-07-01, 10:51:05,VALID,1002.88,VALID,0,VALID,66.2721,VALID,839.053,VALID,31.2472,VALID,217,VALID,2.94102,
2012-07-01, 10:52:05,VALID,1002.79,VALID,0,VALID,65.6541,VALID,822.669,VALID,31.1692,VALID,314,VALID,1.37734,
2012-07-01, 10:53:05,VALID,1002.78,VALID,0,VALID,65.5473,VALID,832.858,VALID,31.0521,VALID,230,VALID,1.63047,
2012-07-01, 10:54:05,VALID,1002.77,VALID,0,VALID,66.9358,VALID,852.257,VALID,30.896,VALID,217,VALID,1.67891,
2012-07-01, 10:55:05,VALID,1002.79,VALID,0,VALID,65.6847,VALID,821.365,VALID,30.8375,VALID,217,VALID,1.99688,